Retour au catalogue

SL-12 R/B(2)

ActifMEO
NORAD 33383·ROCKET BODY·🇷🇺 Russia

Lancé Sep 25, 2008 depuis Baikonur Cosmodrome

Loading…

Prochains Passages (prochaines 24 heures)

TLE

VieillissantSource: Space-Track

Époque: Aug 30, 2026, 13:29 UTC

1 33383U 08046F   26242.56196159 -.00000023  00000-0  00000+0 0  9991
2 33383  65.4139 312.0309 0021179 198.0992 160.3650  2.13271662139640

Suivez SL-12 R/B(2) en temps réel avec AllMySat

Download on the App Store